• In Deutschland
  • Länderverzeichnis
  • Für 7 Tage
  • Wassertemperatur
  • Satellitenkarten
  • Wetterkarte
  • Widgets
  • user-avatar
    Anmelden

    Stündliche Wetter Lubango

    Heute, 18 Juni, Montag

    Zeit Temperatur Niederschläge Wind Luftdruck Luftfeuchtigkeit
    00:00 +11°C° 0 mm 1 m/S 610 mmHg 38%
    01:00 +11°C° 0 mm 1 m/S 609 mmHg 40%
    02:00 +11°C° 0 mm 1 m/S 609 mmHg 39%
    03:00 +10°C° 0 mm 1 m/S 609 mmHg 37%
    04:00 +10°C° 0 mm 1 m/S 609 mmHg 35%
    05:00 +10°C° 0 mm 1 m/S 609 mmHg 34%
    06:00 +10°C° 0 mm 1 m/S 609 mmHg 34%
    07:00 +10°C° 0 mm 1 m/S 609 mmHg 34%
    08:00 +14°C° 0 mm 2 m/S 610 mmHg 28%
    09:00 +18°C° 0 mm 2 m/S 612 mmHg 22%
    10:00 +23°C° 0 mm 2 m/S 614 mmHg 16%
    11:00 +25°C° 0 mm 2 m/S 614 mmHg 15%
    12:00 +26°C° 0 mm 1 m/S 614 mmHg 13%
    13:00 +28°C° 0 mm 1 m/S 614 mmHg 12%
    14:00 +27°C° 0 mm 1 m/S 614 mmHg 13%
    15:00 +26°C° 0 mm 2 m/S 613 mmHg 13%
    16:00 +26°C° 0 mm 2 m/S 613 mmHg 14%
    17:00 +21°C° 0 mm 2 m/S 611 mmHg 24%
    18:00 +18°C° 0 mm 1 m/S 610 mmHg 33%
    19:00 +14°C° 0 mm 1 m/S 609 mmHg 42%
    20:00 +13°C° 0 mm 1 m/S 609 mmHg 46%
    21:00 +12°C° 0 mm 1 m/S 609 mmHg 49%
    22:00 +11°C° 0 mm 1 m/S 609 mmHg 53%
    23:00 +11°C° 0 mm 1 m/S 609 mmHg 52%

    Morgen, 19 Juni, Dienstag

    Zeit Temperatur Niederschläge Wind Luftdruck Luftfeuchtigkeit
    00:00 +11°C° 0 mm 1 m/S 609 mmHg 51%
    01:00 +11°C° 0 mm 1 m/S 609 mmHg 50%
    02:00 +10°C° 0 mm 1 m/S 608 mmHg 47%
    03:00 +10°C° 0 mm 1 m/S 608 mmHg 45%
    04:00 +10°C° 0 mm 1 m/S 608 mmHg 43%
    05:00 +10°C° 0 mm 1 m/S 608 mmHg 41%
    06:00 +10°C° 0 mm 1 m/S 608 mmHg 38%
    07:00 +10°C° 0 mm 1 m/S 608 mmHg 36%
    08:00 +14°C° 0 mm 1 m/S 610 mmHg 29%
    09:00 +20°C° 0 mm 1 m/S 612 mmHg 23%
    10:00 +24°C° 0 mm 1 m/S 614 mmHg 17%
    11:00 +25°C° 0 mm 1 m/S 614 mmHg 15%
    12:00 +26°C° 0 mm 1 m/S 614 mmHg 14%
    13:00 +27°C° 0 mm 1 m/S 614 mmHg 13%
    14:00 +27°C° 0 mm 2 m/S 613 mmHg 13%
    15:00 +26°C° 0 mm 2 m/S 612 mmHg 14%
    16:00 +26°C° 0 mm 2 m/S 612 mmHg 14%
    17:00 +21°C° 0 mm 2 m/S 611 mmHg 21%
    18:00 +19°C° 0 mm 1 m/S 610 mmHg 28%
    19:00 +14°C° 0 mm 1 m/S 608 mmHg 35%
    20:00 +13°C° 0 mm 1 m/S 609 mmHg 38%
    21:00 +13°C° 0 mm 1 m/S 609 mmHg 40%
    22:00 +12°C° 0 mm 1 m/S 609 mmHg 42%
    23:00 +12°C° 0 mm 1 m/S 609 mmHg 41%

    übermorgen, 20 Juni, Mittwoch

    Zeit Temperatur Niederschläge Wind Luftdruck Luftfeuchtigkeit
    00:00 +11°C° 0 mm 1 m/S 609 mmHg 39%
    01:00 +11°C° 0 mm 1 m/S 609 mmHg 38%
    02:00 +11°C° 0 mm 1 m/S 608 mmHg 37%
    03:00 +11°C° 0 mm 1 m/S 608 mmHg 36%
    04:00 +10°C° 0 mm 1 m/S 608 mmHg 34%
    05:00 +10°C° 0 mm 1 m/S 608 mmHg 34%
    06:00 +10°C° 0 mm 1 m/S 608 mmHg 33%
    07:00 +11°C° 0 mm 1 m/S 609 mmHg 32%
    08:00 +15°C° 0 mm 2 m/S 611 mmHg 27%
    09:00 +19°C° 0 mm 2 m/S 612 mmHg 22%
    10:00 +24°C° 0 mm 3 m/S 614 mmHg 16%
    11:00 +25°C° 0 mm 3 m/S 614 mmHg 15%
    12:00 +26°C° 0 mm 3 m/S 614 mmHg 14%
    13:00 +27°C° 0 mm 3 m/S 614 mmHg 13%
    14:00 +27°C° 0 mm 2 m/S 613 mmHg 14%
    15:00 +26°C° 0 mm 2 m/S 613 mmHg 15%
    16:00 +26°C° 0 mm 2 m/S 612 mmHg 16%
    17:00 +21°C° 0 mm 2 m/S 611 mmHg 25%
    18:00 +19°C° 0 mm 1 m/S 610 mmHg 35%
    19:00 +14°C° 0 mm 1 m/S 609 mmHg 45%
    20:00 +13°C° 0 mm 1 m/S 610 mmHg 47%
    21:00 +12°C° 0 mm 1 m/S 610 mmHg 50%
    22:00 +12°C° 0 mm 1 m/S 610 mmHg 52%
    23:00 +11°C° 0 mm 1 m/S 610 mmHg 51%

    21 Juni, Donnerstag

    Zeit Temperatur Niederschläge Wind Luftdruck Luftfeuchtigkeit
    00:00 +11°C° 0 mm 1 m/S 610 mmHg 50%
    01:00 +11°C° 0 mm 1 m/S 609 mmHg 49%
    02:00 +11°C° 0 mm 1 m/S 609 mmHg 48%
    03:00 +11°C° 0 mm 1 m/S 609 mmHg 48%
    04:00 +10°C° 0 mm 1 m/S 609 mmHg 47%
    05:00 +10°C° 0 mm 1 m/S 609 mmHg 46%
    06:00 +10°C° 0 mm 1 m/S 610 mmHg 45%
    07:00 +10°C° 0 mm 1 m/S 610 mmHg 43%
    08:00 +14°C° 0 mm 2 m/S 611 mmHg 36%
    09:00 +18°C° 0 mm 2 m/S 613 mmHg 29%
    10:00 +22°C° 0 mm 3 m/S 615 mmHg 21%
    11:00 +24°C° 0 mm 3 m/S 615 mmHg 20%
    12:00 +26°C° 0 mm 3 m/S 614 mmHg 18%
    13:00 +27°C° 0 mm 3 m/S 614 mmHg 17%
    14:00 +27°C° 0 mm 2 m/S 614 mmHg 17%
    15:00 +27°C° 0 mm 2 m/S 613 mmHg 18%
    16:00 +26°C° 0 mm 2 m/S 613 mmHg 19%
    17:00 +23°C° 0 mm 2 m/S 612 mmHg 27%
    18:00 +19°C° 0 mm 1 m/S 611 mmHg 36%
    19:00 +15°C° 0 mm 1 m/S 610 mmHg 45%
    20:00 +14°C° 0 mm 1 m/S 610 mmHg 47%
    21:00 +13°C° 0 mm 1 m/S 611 mmHg 49%
    22:00 +13°C° 0 mm 1 m/S 611 mmHg 52%
    23:00 +12°C° 0 mm 1 m/S 610 mmHg 50%

    22 Juni, Freitag

    Zeit Temperatur Niederschläge Wind Luftdruck Luftfeuchtigkeit
    00:00 +12°C° 0 mm 1 m/S 610 mmHg 48%
    01:00 +12°C° 0 mm 1 m/S 610 mmHg 45%
    02:00 +12°C° 0 mm 1 m/S 610 mmHg 44%
    03:00 +10°C° 0 mm 2 m/S 609 mmHg 42%
    04:00 +10°C° 0 mm 2 m/S 609 mmHg 40%
    05:00 +10°C° 0 mm 2 m/S 609 mmHg 39%
    06:00 +10°C° 0 mm 2 m/S 610 mmHg 38%
    07:00 +10°C° 0 mm 2 m/S 610 mmHg 37%
    08:00 +14°C° 0 mm 3 m/S 612 mmHg 31%
    09:00 +19°C° 0 mm 3 m/S 613 mmHg 26%
    10:00 +23°C° 0 mm 4 m/S 615 mmHg 21%
    11:00 +25°C° 0 mm 4 m/S 614 mmHg 19%
    12:00 +26°C° 0 mm 3 m/S 614 mmHg 18%
    13:00 +27°C° 0 mm 3 m/S 614 mmHg 17%
    14:00 +27°C° 0 mm 2 m/S 614 mmHg 17%
    15:00 +27°C° 0 mm 2 m/S 613 mmHg 18%
    16:00 +26°C° 0 mm 2 m/S 613 mmHg 19%
    17:00 +23°C° 0 mm 2 m/S 612 mmHg 27%
    18:00 +20°C° 0 mm 1 m/S 611 mmHg 34%
    19:00 +16°C° 0 mm 1 m/S 611 mmHg 42%
    20:00 +15°C° 0 mm 1 m/S 611 mmHg 46%
    21:00 +14°C° 0 mm 1 m/S 611 mmHg 51%
    22:00 +13°C° 0 mm 1 m/S 610 mmHg 55%
    23:00 +13°C° 0 mm 1 m/S 610 mmHg 54%

    23 Juni, Samstag

    Zeit Temperatur Niederschläge Wind Luftdruck Luftfeuchtigkeit
    00:00 +12°C° 0 mm 1 m/S 610 mmHg 53%
    01:00 +12°C° 0 mm 1 m/S 610 mmHg 52%
    02:00 +12°C° 0 mm 1 m/S 609 mmHg 50%
    03:00 +12°C° 0 mm 1 m/S 609 mmHg 49%
    04:00 +11°C° 0 mm 1 m/S 609 mmHg 47%
    05:00 +11°C° 0 mm 1 m/S 609 mmHg 45%
    06:00 +10°C° 0 mm 2 m/S 610 mmHg 43%
    07:00 +10°C° 0 mm 2 m/S 610 mmHg 42%
    08:00 +15°C° 0 mm 2 m/S 611 mmHg 36%
    09:00 +19°C° 0 mm 3 m/S 613 mmHg 31%
    10:00 +22°C° 0 mm 4 m/S 614 mmHg 26%
    11:00 +25°C° 0 mm 3 m/S 614 mmHg 23%
    12:00 +26°C° 0 mm 3 m/S 614 mmHg 21%
    13:00 +27°C° 0 mm 3 m/S 614 mmHg 18%
    14:00 +27°C° 0 mm 2 m/S 613 mmHg 19%
    15:00 +27°C° 0 mm 2 m/S 613 mmHg 19%
    16:00 +26°C° 0 mm 2 m/S 612 mmHg 20%
    17:00 +23°C° 0 mm 2 m/S 611 mmHg 26%
    18:00 +20°C° 0 mm 2 m/S 611 mmHg 32%
    19:00 +18°C° 0 mm 1 m/S 610 mmHg 38%
    20:00 +16°C° 0 mm 1 m/S 610 mmHg 41%
    21:00 +15°C° 0 mm 1 m/S 610 mmHg 43%
    22:00 +14°C° 0 mm 1 m/S 610 mmHg 46%
    23:00 +14°C° 0 mm 1 m/S 609 mmHg 44%
    Mehr zeigen